Regional Weather Roundup
Issued by NWS

Home | Current Version | Previous Version | Text Only | Print | Product List | Glossary Off
Versions: 1 2 3 4 5 6 7 8 9 10 11 12 13 14 15 16 17 18 19 20 21 22 23 24 25 26 27 28 29 30 31 32 33 34 35 36 37 38 39 40 41 42 43 44 45 46 47 48 49 50

000
ASUS43 KLOT 221506
RWRIL

ILLINOIS REGIONAL WEATHER ROUNDUP
NATIONAL WEATHER SERVICE CHICAGO/ROMEOVILLE IL
900 AM CST SAT NOV 22 2014

NOTE: "FAIR" INDICATES FEW OR NO CLOUDS BELOW 12,000 FEET WITH NO
SIGNIFICANT WEATHER AND/OR OBSTRUCTIONS TO VISIBILITY.

* THESE STATIONS ARE NOT UNDER NWS QUALITY CONTROL. THEY ALSO MAY NOT
  REPORT WEATHER SUCH AS PRECIPITATION OR FOG.

ILZ001-002-007-009-015-016-024-221600-
NORTHWEST ILLINOIS

CITY           SKY/WX    TMP DP  RH WIND       PRES   REMARKS
MOLINE         CLOUDY    45  41  86 S9        29.94F FOG
STERLING*      CLOUDY    41  37  87 SW5       29.97F
SAVANNA*       FOG       38  37  96 S7        29.94F VSB 1/4 WCI  33
$$

ILZ003-004-008-010-011-017-018-221600-
NORTH CENTRAL ILLINOIS

CITY           SKY/WX    TMP DP  RH WIND       PRES   REMARKS
ROCKFORD       DRZL/FOG  37  36  96 S9        29.98F VSB 1/2 WCI  30
FREEPORT*      FOG       36  36  99 S9        29.96F VSB 1/2 WCI  29
ROCHELLE*      FOG       37  37 100 S9        29.99F VSB 1/2 WCI  31
DE KALB*       FOG       36  35  99 S10       29.99F VSB 1/4 WCI  28
PERU*          CLOUDY    41  39  93 S6        30.01F FOG
$$

ILZ005-006-012>014-019>023-221600-
NORTHEAST ILLINOIS

CITY           SKY/WX    TMP DP  RH WIND       PRES   REMARKS
CHICAGO-OHARE  CLOUDY    38  36  92 SW10      30.00F FOG     WCI  31
CHICAGO-MIDWAY CLOUDY    40  36  86 S9        30.02F
AURORA         CLOUDY    40  36  86 S10       30.00F FOG
LANSING*       CLOUDY    38  35  89 S12       30.04F WCI  31
JOLIET*        CLOUDY    39  35  86 S8        30.03F WCI  34
WAUKEGAN       CLOUDY    37  36  96 S15       29.97F FOG     WCI  28
DUPAGE AIRPORT CLOUDY    38  36  92 S10       29.99F FOG     WCI  31
KANKAKEE*      CLOUDY    41  38  87 S17G23    30.05F
WHEELING       CLOUDY    38  37  97 S9        30.02F FOG     WCI  31
MORRIS*        CLOUDY    40  38  90 SW13      30.01F
ROMEOVILLE*    CLOUDY    39  36  87 SW12      30.02S WCI  32
NORTHERLY ISL    N/A     39  35  86 S10         N/A  WCI  32
$$

LMZ740>746-221600-
SOUTHERN LAKE MICHIGAN

STATION/POSITION SKY/WX   TEMP    WIND        PRES    VSBY  WAVE
                          AIR SEA DIR/SP/G                  HT/PER
                          (F)     (DEG/KT/KT) (MB)    (MI)  (FT/S)
SOUTHERN BUOY              40 43  210/ 19/ 23 1016.3F         6/ 6
WAUKEGAN HARBOR            38     220/ 13/ 17   N/A
HARRISON CRIB              38     190/ 19/ 22   N/A
BURNHAM HARBOR             39     210/  9/ 12   N/A
CALUMET HARBOR             38     190/  9/ 13 1015.7F
MICHIGAN CITY              38     170/ 13/ 16   N/A
$$

ILZ025>027-034>036-040-047-049-050-058-095>099-221600-
WEST-CENTRAL ILLINOIS

CITY           SKY/WX    TMP DP  RH WIND       PRES   REMARKS
QUINCY         CLOUDY    51  45  79 S14       30.00S
GALESBURG*     CLOUDY    45  41  85 S12       29.98F
MACOMB*        CLOUDY    46  42  88 S9        30.01F
JACKSONVILLE*  CLOUDY    49  42  77 S12G18    30.03F
PITTSFIELD*    PTSUNNY   50  44  79 S10G16    30.03F
$$

ILZ028>032-037-038-041>044-048-051>054-059>061-221600-
CENTRAL ILLINOIS

CITY           SKY/WX    TMP DP  RH WIND       PRES   REMARKS
PONTIAC        CLOUDY    44  40  85 S13       30.04S
BLOOMINGTON    CLOUDY    43  40  89 S16       30.05F
DECATUR        CLOUDY    49  42  77 S16       30.08F
PEORIA         CLOUDY    44  39  82 S13       30.02F HAZE
LACON*         CLOUDY    44  37  78 S9        30.00F
LINCOLN*       PTSUNNY   47  40  77 S12G18    30.05F
SPRINGFIELD    PTSUNNY   49  41  74 S20       30.06F
TAYLORVILLE    CLOUDY    46  41  81 S15G22    30.07F
$$

ILZ033-039-045-046-055>057-062-063-221600-
EAST-CENTRAL ILLINOIS

CITY           SKY/WX    TMP DP  RH WIND       PRES   REMARKS
CHAMPAIGN      CLOUDY    44  40  85 S17       30.08F
DANVILLE*      CLOUDY    44  38  79 SW18G26   30.07F
RANTOUL*       CLOUDY    46  41  85 S10       30.08F
MATTOON        CLOUDY    46  38  73 S14G21    30.11F
PARIS*         CLOUDY    46  39  78 S17G24    30.13F
$$

ILZ079-100>102-221600-
SOUTHWEST ILLINOIS

CITY           SKY/WX    TMP DP  RH WIND       PRES   REMARKS
ALTON          CLOUDY    50  43  76 S16       30.10F
BELLEVILLE     CLOUDY    52  47  82 S12       30.11F
CAHOKIA*       CLOUDY    54  46  74 S9        30.11F
SPARTA*        CLOUDY    51  45  79 S15G22    30.16S
$$

ILZ064>066-069>071-074>076-080>082-084>086-088>090-092>094-221600-
SOUTH-CENTRAL ILLINOIS

CITY           SKY/WX    TMP DP  RH WIND       PRES   REMARKS
CARBONDALE     CLOUDY    55  44  66 SW21      30.19S
CAIRO*         CLOUDY    56  44  65 S10       30.23S
EFFINGHAM*     CLOUDY    49  38  66 S8        30.14F
MARION         PTSUNNY   55  45  67 S17       30.21S
MT. VERNON     CLOUDY    54  45  71 S17G24    30.18S
CENTRALIA*     CLOUDY    52  44  74 S16       30.15F
SALEM*         LGT RAIN  54  46  75 S14       30.15S
METROPOLIS*    CLOUDY    56  43  60 S8        30.24S
$$

ILZ067-068-072-073-078-083-087-091-221600-
SOUTHEAST ILLINOIS

CITY           SKY/WX    TMP DP  RH WIND       PRES   REMARKS
LAWRENCEVILLE  CLOUDY    52  41  66 S15       30.19F
FLORA*         PTSUNNY   52  42  69 S15       30.17F
FAIRFIELD*     LGT RAIN  53  44  72 S13       30.17F
HARRISBURG*    PTSUNNY   57  42  59 S13G24    30.22S
ROBINSON*      CLOUDY    48  38  69 S14       30.18F
CARMI*         CLOUDY    56  45  66 S21       30.21S
$$

ABBREVIATIONS USED IN REMARKS
   TC - TEMPERATURE IN CELSIUS
  WCI - WIND CHILL INDEX
   HX - HEAT INDEX
  VSB - VISIBILITY
$$



USA.gov is the U.S. government's official web portal to all federal, state and local government web resources and services.